ORBCOMM FM 10

Satellite information

Favourite Embed

Satellite Type and Status

PAYLOADIN ORBIT

Key statistics

Satellite ORBCOMM FM 10 at a glance.

Uptime

10218

Days in orbit

Revolutions

≈ 14.5

Per day

Orbit

LEO

Low Earth Orbit

Inclination

45.0

Latest

Satellite identification and parameters

Extended collection of information and parameters for ORBCOMM FM 10.

Object identification

Identified? True

Debris? False

Object name: ORBCOMM FM 10

International designator: 1997-084B

Object number (NORAD): 25113

Object ID (CCSDS): 25113

Country: ORBITAL TELECOMMUNICATIONS SATELLITE (GLOBALSTAR) (ORB)

Current information (Y/N): Y

RCS size: MEDIUM

Orbital parameters

Period: 99.562 minutes

Inclination: 45.0135 deg

SMA: 7115.769 km

Apoapsis: 741.562 km

Periapsis: 733.707 km

RAAN: 236.182 deg

Eccentricy: 0.00055199

Argument of periapsis: 30.0911 deg

Mean anomaly: 330.0257 deg

Mean motion: 14.46338545 rev/day

Mean motion (dot): 0.00002541 rev/day2

B* drag term: 0.00074122645 1/REarth

Two-line elements (TLE)

Creation date: Dec. 12, 2025, 10:14 a.m.

Reference frame: TEME

Reference center: EARTH

Epoch: Dec. 12, 2025, 1:50 a.m. UTC

TLE line 0: 0 ORBCOMM FM 10

TLE line 1: 1 25113U 97084B 25346.07708099 .00002541 00000-0 74123-3 0 9992

TLE line 2: 2 25113 45.0135 236.1820 0005520 30.0911 330.0257 14.46338545642263

Live tracking on map

Real-time ground track for satellite ORBCOMM FM 10.

In-orbit conjunctions

There are no conjunctions computed for ORBCOMM FM 10, at the moment. Check back to stay up to date, as we update our databases every day.

Go to all conjunctions

Associated space launch

ORBCOMM FM 10 was lifted into orbit during the mission ‘Pegasus XL HAPS | Orbcomm-A1 - A8’, on board a Pegasus XL HAPS space rocket.

The launch took place on Dec. 23, 1997, 7:11 p.m. from Wallops Flight Facility.

For more information about the launch, click the button.

Launch to space Pegasus XL HAPS | Orbcomm-A1 - A8
Pegasus XL HAPS | Orbcomm-A1 - A8

Agency: N/A

Status: Launch Successful

Launch date: Dec. 23, 1997, 7:11 p.m. UTC

Rocket: Pegasus XL HAPS

Launch pad: Wallops Flight Facility

Location: Air launch to orbit

...

Latest news about this satellite

There are no fresh news available about this satellite. Check back as we update our databases every day.


Newsletter sign-up

Weekly statistics, charts and insights to help you stay on top of the space industry.